TimeEDT,TemperatureF,Dew PointF,Humidity,Sea Level PressureIn,VisibilityMPH,Wind Direction,Wind SpeedMPH,Gust SpeedMPH,PrecipitationIn,Events,Conditions,WindDirDegrees,DateUTC
12:15 AM,60.8,57.2,88,30.27,10.0,NE,11.5,-,N/A,,Overcast,40,2013-05-02 04:15:00
12:35 AM,59.0,59.0,100,30.27,10.0,NE,9.2,-,N/A,Rain,Light Rain,40,2013-05-02 04:35:00
12:55 AM,59.0,59.0,100,30.26,5.0,NE,9.2,-,N/A,,Overcast,40,2013-05-02 04:55:00
1:15 AM,59.0,59.0,100,30.26,5.0,NNE,10.4,-,N/A,,Overcast,30,2013-05-02 05:15:00
1:35 AM,59.0,59.0,100,30.27,7.0,NE,9.2,-,N/A,,Overcast,40,2013-05-02 05:35:00
1:55 AM,59.0,59.0,100,30.26,7.0,NNE,9.2,-,N/A,,Overcast,30,2013-05-02 05:55:00
2:15 AM,59.0,59.0,100,30.25,10.0,NNE,10.4,-,N/A,,Overcast,30,2013-05-02 06:15:00
2:35 AM,59.0,59.0,100,30.24,10.0,NNE,10.4,-,N/A,Rain,Rain,30,2013-05-02 06:35:00
3:15 AM,59.0,59.0,100,30.24,7.0,NNE,10.4,-,0.01,Rain,Light Rain,30,2013-05-02 07:15:00
3:35 AM,59.0,59.0,100,30.24,7.0,NNE,9.2,-,0.01,Rain,Rain,30,2013-05-02 07:35:00
3:55 AM,59.0,59.0,100,30.24,7.0,NNE,8.1,-,0.03,Rain,Light Rain,30,2013-05-02 07:55:00
4:15 AM,59.0,59.0,100,30.24,7.0,NNE,9.2,-,0.02,,Drizzle,30,2013-05-02 08:15:00
4:35 AM,59.0,59.0,100,30.24,7.0,NNE,9.2,-,0.02,,Drizzle,30,2013-05-02 08:35:00
4:55 AM,59.0,59.0,100,30.23,4.0,NE,9.2,-,0.02,,Overcast,40,2013-05-02 08:55:00
5:15 AM,59.0,59.0,100,30.23,4.0,NE,6.9,-,N/A,,Overcast,50,2013-05-02 09:15:00
5:35 AM,59.0,59.0,100,30.23,5.0,NE,9.2,18.4,N/A,,Overcast,50,2013-05-02 09:35:00
5:55 AM,59.0,59.0,100,30.23,5.0,ENE,9.2,17.3,N/A,,Overcast,60,2013-05-02 09:55:00
6:15 AM,59.0,59.0,100,30.23,4.0,ENE,10.4,-,N/A,,Overcast,60,2013-05-02 10:15:00
6:35 AM,59.0,59.0,100,30.24,5.0,ENE,11.5,16.1,N/A,,Overcast,60,2013-05-02 10:35:00
6:55 AM,59.0,59.0,100,30.24,7.0,NE,6.9,-,N/A,,Overcast,50,2013-05-02 10:55:00
7:15 AM,59.0,59.0,100,30.24,7.0,NE,4.6,-,N/A,,Overcast,50,2013-05-02 11:15:00
7:35 AM,59.0,59.0,100,30.25,10.0,NE,8.1,-,N/A,,Overcast,50,2013-05-02 11:35:00
7:55 AM,59.0,59.0,100,30.26,7.0,ENE,9.2,-,N/A,,Overcast,60,2013-05-02 11:55:00
8:15 AM,59.0,59.0,100,30.26,7.0,NE,6.9,-,N/A,,Overcast,50,2013-05-02 12:15:00
8:35 AM,59.0,59.0,100,30.27,7.0,NE,9.2,-,N/A,,Overcast,50,2013-05-02 12:35:00
8:55 AM,59.0,59.0,100,30.28,5.0,NE,9.2,-,N/A,,Overcast,50,2013-05-02 12:55:00
9:15 AM,59.0,59.0,100,30.27,4.0,NE,9.2,-,N/A,,Overcast,40,2013-05-02 13:15:00
9:35 AM,59.0,59.0,100,30.27,5.0,ENE,5.8,-,N/A,,Overcast,60,2013-05-02 13:35:00
9:55 AM,59.0,59.0,100,30.27,5.0,NE,9.2,-,N/A,,Overcast,40,2013-05-02 13:55:00
10:15 AM,59.0,59.0,100,30.28,7.0,NE,10.4,17.3,N/A,,Overcast,40,2013-05-02 14:15:00
10:35 AM,60.8,60.8,100,30.28,10.0,NE,8.1,-,N/A,,Overcast,50,2013-05-02 14:35:00
10:55 AM,60.8,60.8,100,30.28,7.0,NE,10.4,-,N/A,,Overcast,40,2013-05-02 14:55:00
11:15 AM,60.8,60.8,100,30.29,5.0,NE,9.2,-,N/A,,Overcast,50,2013-05-02 15:15:00
11:35 AM,59.0,59.0,100,30.29,2.5,NE,8.1,-,N/A,,Overcast,50,2013-05-02 15:35:00
11:55 AM,60.8,60.8,100,30.30,4.0,NE,6.9,-,N/A,,Light Drizzle,50,2013-05-02 15:55:00
12:15 PM,60.8,60.8,100,30.30,7.0,NE,8.1,-,N/A,,Overcast,50,2013-05-02 16:15:00
12:35 PM,60.8,60.8,100,30.29,7.0,NE,9.2,-,N/A,,Overcast,50,2013-05-02 16:35:00
12:55 PM,62.6,60.8,94,30.29,10.0,NE,12.7,-,N/A,,Overcast,40,2013-05-02 16:55:00
1:15 PM,62.6,60.8,94,30.28,10.0,NE,10.4,17.3,N/A,,Overcast,40,2013-05-02 17:15:00
1:35 PM,62.6,60.8,94,30.28,7.0,NNE,10.4,-,N/A,,Overcast,30,2013-05-02 17:35:00
1:55 PM,62.6,60.8,94,30.29,10.0,NE,9.2,16.1,N/A,,Overcast,50,2013-05-02 17:55:00
2:15 PM,60.8,59.0,94,30.28,7.0,NE,13.8,19.6,N/A,,Overcast,40,2013-05-02 18:15:00
2:35 PM,62.6,59.0,88,30.28,10.0,NE,9.2,19.6,N/A,,Overcast,40,2013-05-02 18:35:00
2:55 PM,60.8,59.0,94,30.28,10.0,NNE,12.7,17.3,N/A,,Overcast,30,2013-05-02 18:55:00
3:15 PM,60.8,60.8,100,30.27,10.0,NE,9.2,-,N/A,,Overcast,40,2013-05-02 19:15:00
3:35 PM,60.8,60.8,100,30.27,5.0,NE,8.1,-,N/A,,Overcast,50,2013-05-02 19:35:00
3:55 PM,60.8,60.8,100,30.26,7.0,NE,9.2,16.1,N/A,,Overcast,50,2013-05-02 19:55:00
4:15 PM,62.6,60.8,94,30.25,10.0,NE,10.4,-,N/A,,Overcast,40,2013-05-02 20:15:00
4:35 PM,62.6,60.8,94,30.25,10.0,NE,12.7,16.1,N/A,,Overcast,40,2013-05-02 20:35:00
4:55 PM,62.6,60.8,94,30.24,10.0,NNE,6.9,-,N/A,,Overcast,20,2013-05-02 20:55:00
5:15 PM,62.6,59.0,88,30.24,10.0,NNE,8.1,-,N/A,,Overcast,30,2013-05-02 21:15:00
5:35 PM,62.6,59.0,88,30.23,10.0,NE,10.4,-,N/A,,Overcast,40,2013-05-02 21:35:00
5:55 PM,64.4,59.0,83,30.22,10.0,NE,10.4,-,N/A,,Overcast,40,2013-05-02 21:55:00
6:15 PM,64.4,59.0,83,30.22,7.0,NE,16.1,20.7,N/A,,Overcast,40,2013-05-02 22:15:00
6:35 PM,64.4,59.0,83,30.22,7.0,ENE,10.4,17.3,N/A,,Overcast,70,2013-05-02 22:35:00
6:55 PM,64.4,59.0,83,30.22,7.0,NE,8.1,-,N/A,,Overcast,40,2013-05-02 22:55:00
7:15 PM,62.6,59.0,88,30.22,7.0,NE,9.2,16.1,N/A,,Overcast,50,2013-05-02 23:15:00
7:35 PM,62.6,59.0,88,30.23,7.0,NE,4.6,-,N/A,,Overcast,40,2013-05-02 23:35:00
7:55 PM,62.6,59.0,88,30.23,7.0,NE,8.1,-,N/A,,Overcast,40,2013-05-02 23:55:00
8:15 PM,62.6,57.2,82,30.23,7.0,NE,11.5,-,N/A,,Overcast,40,2013-05-03 00:15:00
8:35 PM,62.6,59.0,88,30.23,10.0,NE,8.1,-,N/A,,Overcast,40,2013-05-03 00:35:00
8:55 PM,62.6,59.0,88,30.23,7.0,NNE,10.4,-,N/A,,Overcast,30,2013-05-03 00:55:00
9:15 PM,62.6,57.2,82,30.24,7.0,NE,10.4,-,N/A,,Overcast,40,2013-05-03 01:15:00
9:35 PM,60.8,57.2,88,30.24,10.0,NE,13.8,18.4,N/A,,Overcast,40,2013-05-03 01:35:00
9:55 PM,60.8,57.2,88,30.24,7.0,NE,12.7,-,N/A,,Overcast,50,2013-05-03 01:55:00
10:15 PM,60.8,59.0,94,30.24,10.0,NE,9.2,-,N/A,,Overcast,50,2013-05-03 02:15:00
10:35 PM,60.8,59.0,94,30.24,10.0,NE,10.4,-,N/A,,Overcast,50,2013-05-03 02:35:00
10:55 PM,60.8,59.0,94,30.24,7.0,NE,9.2,-,N/A,,Overcast,40,2013-05-03 02:55:00
11:15 PM,59.0,59.0,100,30.24,5.0,NE,11.5,-,N/A,,Overcast,50,2013-05-03 03:15:00
11:35 PM,59.0,59.0,100,30.23,5.0,NE,10.4,16.1,N/A,Rain,Light Rain,50,2013-05-03 03:35:00
11:55 PM,59.0,59.0,100,30.23,5.0,NE,10.4,-,N/A,,Overcast,40,2013-05-03 03:55:00